Regional Weather Roundup
Issued by NWS

Home | Current Version | Previous Version | Text Only | Print | Product List | Glossary Off
Versions: 1 2 3 4 5 6 7 8 9 10 11 12 13 14 15 16 17 18 19 20 21 22 23 24 25 26 27 28 29 30 31 32 33 34 35 36 37 38 39 40 41 42 43 44 45 46 47 48 49 50

000
ASUS43 KTOP 282359
RWRKS

WEATHER ROUNDUP FOR KANSAS
NATIONAL WEATHER SERVICE GOODLAND KS
700 PM CDT THU JUL 28 2016

NOTE:  "FAIR" INDICATES FEW OR NO CLOUDS BELOW 12,000 FEET WITH NO
SIGNIFICANT WEATHER AND/OR OBSTRUCTIONS TO VISIBILITY.

KSZ001>006-013>018-027>032-041>047-290100-
NORTHWEST KANSAS

CITY           SKY/WX    TMP DP  RH WIND       PRES   REMARKS
GOODLAND       SUNNY     76  64  66 NE14      30.07F
6HR MIN TEMP:  74; 6HR MAX TEMP:  85;

HAYS           SUNNY     77  61  57 NE20      30.00S
HILL CITY      MOSUNNY   75  62  64 NE9       30.03S
6HR MIN TEMP:  69; 6HR MAX TEMP:  88; 6HR PCP: TRACE;

RUSSELL        CLOUDY    70  64  81 N13G21    30.00F
6HR MIN TEMP:  67; 6HR MAX TEMP:  92; 6HR PCP:  0.11;

$$

KSZ061>065-074>080-084>089-290100-
SOUTHWEST KANSAS

CITY           SKY/WX    TMP DP  RH WIND       PRES   REMARKS
DODGE CITY     SUNNY     90  58  33 S7        29.99S
6HR MIN TEMP:  86; 6HR MAX TEMP:  91;

ELKHART          N/A     84  59  42 S10         N/A
GARDEN CITY    CLOUDY    89  61  38 E13       29.99F
6HR MIN TEMP:  84; 6HR MAX TEMP:  90;

GREAT BEND     SUNNY     88  70  55 CALM      29.96S
LIBERAL        CLOUDY    91  57  31 S9        30.00R
$$

KSZ066>073-081>083-090>101-290100-
SOUTHEAST KANSAS

CITY           SKY/WX    TMP DP  RH WIND       PRES   REMARKS
CHANUTE        CLOUDY    88  72  58 CALM      29.91F
6HR MIN TEMP:  87; 6HR MAX TEMP:  92;

COFFEYVILLE    CLOUDY    87  75  67 NW3       29.91S HX  96
6HR MIN TEMP:  86; 6HR MAX TEMP:  93;

HUTCHINSON     SUNNY     89  69  51 SE13      29.92F
6HR MIN TEMP:  88; 6HR MAX TEMP:  95;

NEWTON         SUNNY     86  72  62 SE7       29.94F
PARSONS        CLOUDY    86  78  77 CALM      29.92F HX  98
6HR MIN TEMP:  85; 6HR MAX TEMP:  92;

WICHITA INTL   MOSUNNY   87  68  52 SE13      29.91F
6HR MIN TEMP:  83; 6HR MAX TEMP:  94;

WICHITA JABRA  SUNNY     86  68  54 SE12      29.92F
6HR MIN TEMP:  82; 6HR MAX TEMP:  93;

WINFIELD       MOSUNNY   82  70  66 S6        29.93F
6HR MIN TEMP:  68; 6HR MAX TEMP:  94; 6HR PCP:  0.53;

$$

KSZ007>012-019>026-033>040-048>060-102>105-290100-
NORTHEAST KANSAS

CITY           SKY/WX    TMP DP  RH WIND       PRES   REMARKS
CONCORDIA      TSTM      67  64  90 N15G29    30.03S FOG
6HR MIN TEMP:  65; 6HR MAX TEMP:  90; 6HR PCP:  1.22;

EMPORIA        SUNNY     88  65  46 E3        29.92F
6HR MIN TEMP:  87; 6HR MAX TEMP:  91;

LAWRENCE       SUNNY     84  68  58 N7        29.92R
6HR MIN TEMP:  84; 6HR MAX TEMP:  92;

MANHATTAN      CLOUDY    87  69  54 CALM      29.92S
6HR MIN TEMP:  86; 6HR MAX TEMP:  92;

OLATHE IND     SUNNY     87  67  51 N9        29.93S
6HR MIN TEMP:  87; 6HR MAX TEMP:  91;

OLATHE EXE     SUNNY     88  66  48 N9        29.92F
6HR MIN TEMP:  87; 6HR MAX TEMP:  91;

SALINA         PTSUNNY   83  64  52 MISG      30.00R
6HR MIN TEMP:  83; 6HR MAX TEMP:  94;

TOPEKA BILLARD MOSUNNY   88  69  53 NE9       29.93R
6HR MIN TEMP:  87; 6HR MAX TEMP:  93;

TOPEKA FORBES  MOSUNNY   88  69  53 NE6       29.93R
6HR MIN TEMP:  88; 6HR MAX TEMP:  94;

$$




USA.gov is the U.S. government's official web portal to all federal, state and local government web resources and services.